| time (UTC) | temp F | wind direction | speed MPH | gust MPH | rain 1hr in | rain 24hr in | rain mn in | humidity % | barometer mb |
| 20260505153003 | 72 | 194 | 7.0 | 14.0 | 0.00 | 0.00 | 0.00 | 89 | 1010.1 |
| 20260505152524 | 72 | 193 | 7.0 | 17.0 | 0.00 | 0.00 | 0.00 | 89 | 1010.0 |
| 20260505152024 | 72 | 196 | 7.0 | 17.0 | 0.00 | 0.00 | 0.00 | 90 | 1010.2 |
| 20260505151524 | 72 | 187 | 6.0 | 14.0 | 0.00 | 0.00 | 0.00 | 90 | 1010.0 |
| 20260505151003 | 72 | 174 | 5.0 | 14.0 | 0.00 | 0.00 | 0.00 | 90 | 1009.9 |
| 20260505150505 | 72 | 179 | 6.0 | 14.0 | 0.00 | 0.00 | 0.00 | 90 | 1009.9 |
| 20260505140503 | 72 | 190 | 7.0 | 16.0 | 0.00 | 0.00 | 0.00 | 90 | 1009.7 |
| 20260505125025 | 71 | 181 | 8.0 | 23.0 | 0.00 | 0.00 | 0.00 | 90 | 1008.9 |
| 20260505124504 | 71 | 180 | 8.0 | 17.0 | 0.00 | 0.00 | 0.00 | 90 | 1008.9 |
| 20260505124004 | 71 | 172 | 7.0 | 17.0 | 0.00 | 0.00 | 0.00 | 90 | 1008.8 |
| 20260505123504 | 71 | 172 | 8.0 | 17.0 | 0.00 | 0.00 | 0.00 | 90 | 1008.8 |
| 20260505123004 | 71 | 173 | 8.0 | 18.0 | 0.00 | 0.00 | 0.00 | 90 | 1008.7 |
| 20260505122504 | 71 | 173 | 8.0 | 18.0 | 0.00 | 0.00 | 0.00 | 90 | 1008.7 |
| 20260505122004 | 71 | 170 | 7.0 | 18.0 | 0.00 | 0.00 | 0.00 | 90 | 1008.6 |
| 20260505121504 | 71 | 178 | 8.0 | 20.0 | 0.00 | 0.00 | 0.00 | 90 | 1008.6 |
| 20260505121004 | 71 | 182 | 8.0 | 20.0 | 0.00 | 0.00 | 0.00 | 90 | 1008.6 |
| 20260505120504 | 71 | 179 | 7.0 | 14.0 | 0.00 | 0.00 | 0.00 | 90 | 1008.6 |
| 20260505120004 | 71 | 179 | 8.0 | 19.0 | 0.00 | 0.00 | 0.00 | 90 | 1008.5 |
| 20260505115504 | 71 | 180 | 8.0 | 22.0 | 0.00 | 0.00 | 0.00 | 90 | 1008.5 |
| 20260505115004 | 71 | 177 | 7.0 | 22.0 | 0.00 | 0.00 | 0.00 | 90 | 1008.5 |
| 20260505114504 | 71 | 175 | 7.0 | 14.0 | 0.00 | 0.00 | 0.00 | 90 | 1008.4 |
| 20260505114004 | 71 | 175 | 7.0 | 16.0 | 0.00 | 0.00 | 0.00 | 90 | 1008.2 |
| 20260505113525 | 71 | 175 | 8.0 | 18.0 | 0.00 | 0.00 | 0.00 | 90 | 1008.2 |
| 20260505113004 | 71 | 177 | 8.0 | 18.0 | 0.00 | 0.00 | 0.00 | 89 | 1008.4 |
| 20260505112503 | 71 | 176 | 7.0 | 17.0 | 0.00 | 0.00 | 0.00 | 89 | 1008.5 |
| 20260505112004 | 71 | 175 | 7.0 | 17.0 | 0.00 | 0.00 | 0.00 | 89 | 1008.6 |
| 20260505111503 | 71 | 177 | 8.0 | 19.0 | 0.00 | 0.00 | 0.00 | 89 | 1008.5 |
| 20260505111004 | 71 | 180 | 8.0 | 19.0 | 0.00 | 0.00 | 0.00 | 89 | 1008.4 |
| 20260505110503 | 71 | 180 | 7.0 | 19.0 | 0.00 | 0.00 | 0.00 | 89 | 1008.6 |
| 20260505102024 | 71 | 181 | 11.0 | 22.0 | 0.00 | 0.00 | 0.00 | 89 | 1008.6 |
| 20260505101503 | 71 | 178 | 10.0 | 22.0 | 0.00 | 0.00 | 0.00 | 89 | 1008.6 |
| 20260505101004 | 71 | 182 | 10.0 | 22.0 | 0.00 | 0.00 | 0.00 | 88 | 1008.7 |
| 20260505100504 | 71 | 185 | 11.0 | 22.0 | 0.00 | 0.00 | 0.00 | 88 | 1008.9 |
| 20260505100004 | 71 | 181 | 11.0 | 22.0 | 0.00 | 0.00 | 0.00 | 88 | 1009.0 |
| 20260505095504 | 71 | 180 | 11.0 | 25.0 | 0.00 | 0.00 | 0.00 | 88 | 1008.6 |
| 20260505095004 | 71 | 180 | 12.0 | 25.0 | 0.00 | 0.00 | 0.00 | 88 | 1008.5 |
| 20260505094504 | 71 | 179 | 12.0 | 25.0 | 0.00 | 0.00 | 0.00 | 88 | 1008.5 |
| 20260505094003 | 71 | 179 | 11.0 | 25.0 | 0.00 | 0.00 | 0.00 | 88 | 1008.7 |
| 20260505093504 | 71 | 178 | 11.0 | 28.0 | 0.00 | 0.00 | 0.00 | 88 | 1008.6 |
| 20260505093004 | 71 | 178 | 10.0 | 28.0 | 0.00 | 0.00 | 0.00 | 88 | 1008.7 |
| 20260505092503 | 71 | 183 | 10.0 | 26.0 | 0.00 | 0.00 | 0.00 | 88 | 1008.9 |
| 20260505092004 | 71 | 184 | 10.0 | 26.0 | 0.00 | 0.00 | 0.00 | 88 | 1008.7 |
| 20260505091503 | 71 | 180 | 10.0 | 23.0 | 0.00 | 0.00 | 0.00 | 88 | 1008.6 |
| 20260505091004 | 71 | 179 | 8.0 | 20.0 | 0.00 | 0.00 | 0.00 | 87 | 1008.7 |
| 20260505090525 | 71 | 175 | 10.0 | 25.0 | 0.00 | 0.00 | 0.00 | 87 | 1008.7 |
| 20260505090004 | 71 | 178 | 11.0 | 25.0 | 0.00 | 0.00 | 0.00 | 87 | 1008.8 |
| 20260505085503 | 71 | 179 | 10.0 | 17.0 | 0.00 | 0.00 | 0.00 | 87 | 1008.8 |
| 20260505085004 | 71 | 179 | 10.0 | 19.0 | 0.00 | 0.00 | 0.00 | 87 | 1009.1 |
| 20260505084503 | 71 | 177 | 10.0 | 19.0 | 0.00 | 0.00 | 0.00 | 87 | 1008.9 |
| 20260505084004 | 71 | 177 | 10.0 | 19.0 | 0.00 | 0.00 | 0.00 | 87 | 1008.8 |
| 20260505083503 | 71 | 179 | 10.0 | 19.0 | 0.00 | 0.00 | 0.00 | 87 | 1008.8 |
| 20260505083003 | 71 | 181 | 10.0 | 19.0 | 0.00 | 0.00 | 0.00 | 87 | 1009.0 |
| 20260505082503 | 71 | 182 | 11.0 | 24.0 | 0.00 | 0.00 | 0.00 | 87 | 1009.2 |
| 20260505082025 | 71 | 179 | 11.0 | 24.0 | 0.00 | 0.00 | 0.00 | 87 | 1009.3 |
| 20260505081504 | 71 | 177 | 10.0 | 18.0 | 0.00 | 0.00 | 0.00 | 87 | 1009.3 |
| 20260505081003 | 71 | 177 | 10.0 | 23.0 | 0.00 | 0.00 | 0.00 | 87 | 1009.3 |
| 20260505080504 | 71 | 179 | 10.0 | 23.0 | 0.00 | 0.00 | 0.00 | 87 | 1009.3 |
| 20260505080004 | 71 | 181 | 8.0 | 20.0 | 0.00 | 0.00 | 0.00 | 87 | 1009.4 |
| 20260505075503 | 71 | 183 | 10.0 | 24.0 | 0.00 | 0.00 | 0.00 | 87 | 1009.3 |
| 20260505075003 | 71 | 181 | 10.0 | 24.0 | 0.00 | 0.00 | 0.00 | 87 | 1009.4 |
| 20260505074503 | 71 | 174 | 10.0 | 22.0 | 0.00 | 0.00 | 0.00 | 87 | 1009.5 |
| 20260505074004 | 71 | 175 | 10.0 | 22.0 | 0.00 | 0.00 | 0.00 | 87 | 1009.5 |
| 20260505073503 | 71 | 180 | 10.0 | 23.0 | 0.00 | 0.00 | 0.00 | 87 | 1009.6 |
| 20260505073003 | 71 | 180 | 10.0 | 23.0 | 0.00 | 0.00 | 0.00 | 87 | 1009.7 |
| 20260505072503 | 71 | 175 | 10.0 | 19.0 | 0.00 | 0.00 | 0.00 | 87 | 1009.7 |
| 20260505072003 | 71 | 170 | 11.0 | 20.0 | 0.00 | 0.00 | 0.00 | 86 | 1009.8 |
| 20260505071504 | 71 | 172 | 11.0 | 23.0 | 0.00 | 0.00 | 0.00 | 86 | 1009.8 |
| 20260505071004 | 71 | 175 | 10.0 | 23.0 | 0.00 | 0.00 | 0.00 | 86 | 1009.9 |
| 20260505070503 | 71 | 178 | 11.0 | 19.0 | 0.00 | 0.00 | 0.00 | 86 | 1010.0 |
| 20260505070004 | 71 | 179 | 11.0 | 22.0 | 0.00 | 0.00 | 0.00 | 86 | 1010.0 |
| 20260505065503 | 71 | 176 | 11.0 | 23.0 | 0.00 | 0.00 | 0.00 | 86 | 1010.1 |
| 20260505065003 | 71 | 178 | 11.0 | 23.0 | 0.00 | 0.00 | 0.00 | 86 | 1010.1 |
| 20260505064524 | 71 | 180 | 11.0 | 23.0 | 0.00 | 0.00 | 0.00 | 86 | 1010.2 |
| 20260505064004 | 71 | 181 | 10.0 | 20.0 | 0.00 | 0.00 | 0.00 | 86 | 1010.2 |
| 20260505063525 | 71 | 172 | 11.0 | 20.0 | 0.00 | 0.00 | 0.00 | 86 | 1010.2 |
| 20260505063003 | 71 | 169 | 10.0 | 20.0 | 0.00 | 0.00 | 0.00 | 86 | 1010.4 |
| 20260505062503 | 71 | 174 | 8.0 | 20.0 | 0.00 | 0.00 | 0.00 | 86 | 1010.5 |
| 20260505062004 | 71 | 175 | 10.0 | 20.0 | 0.00 | 0.00 | 0.00 | 86 | 1010.6 |
| 20260505061525 | 71 | 176 | 10.0 | 20.0 | 0.00 | 0.00 | 0.00 | 86 | 1010.7 |
| 20260505061024 | 71 | 176 | 10.0 | 23.0 | 0.00 | 0.00 | 0.00 | 86 | 1010.7 |
| 20260505060503 | 71 | 175 | 10.0 | 23.0 | 0.00 | 0.00 | 0.00 | 86 | 1010.6 |
| 20260505060004 | 72 | 171 | 8.0 | 19.0 | 0.00 | 0.00 | 0.00 | 85 | 1010.7 |
| 20260505055503 | 72 | 175 | 10.0 | 20.0 | 0.00 | 0.00 | 0.00 | 86 | 1010.7 |
| 20260505055003 | 72 | 175 | 11.0 | 20.0 | 0.00 | 0.00 | 0.00 | 85 | 1010.7 |
| 20260505054504 | 72 | 173 | 11.0 | 20.0 | 0.00 | 0.00 | 0.00 | 85 | 1010.7 |
| 20260505054003 | 72 | 173 | 10.0 | 20.0 | 0.00 | 0.00 | 0.00 | 85 | 1010.6 |
| 20260505053504 | 72 | 172 | 10.0 | 19.0 | 0.00 | 0.00 | 0.00 | 85 | 1010.7 |
| 20260505053004 | 72 | 171 | 10.0 | 23.0 | 0.00 | 0.00 | 0.00 | 85 | 1010.6 |
| 20260505052503 | 72 | 174 | 11.0 | 23.0 | 0.00 | 0.00 | 0.00 | 85 | 1010.6 |
| 20260505052024 | 72 | 171 | 11.0 | 23.0 | 0.00 | 0.00 | 0.00 | 85 | 1010.6 |
| 20260505051503 | 72 | 166 | 10.0 | 20.0 | 0.00 | 0.00 | 0.00 | 85 | 1010.5 |
| 20260505051003 | 72 | 172 | 10.0 | 24.0 | 0.00 | 0.00 | 0.00 | 85 | 1010.5 |
| 20260505050504 | 72 | 173 | 11.0 | 24.0 | 0.00 | 0.00 | 0.00 | 85 | 1010.5 |
| 20260505041503 | 73 | 158 | 7.0 | 17.0 | 0.00 | 0.00 | 0.00 | 83 | 1010.5 |
| 20260505041003 | 73 | 159 | 7.0 | 14.0 | 0.00 | 0.00 | 0.00 | 83 | 1010.6 |
| 20260505040504 | 73 | 164 | 7.0 | 14.0 | 0.00 | 0.00 | 0.00 | 82 | 1010.5 |
| 20260505040024 | 73 | 163 | 7.0 | 18.0 | 0.00 | 0.00 | 0.00 | 82 | 1010.6 |
| 20260505035503 | 73 | 165 | 8.0 | 22.0 | 0.00 | 0.00 | 0.00 | 82 | 1010.6 |
| 20260505035003 | 73 | 169 | 8.0 | 22.0 | 0.00 | 0.00 | 0.00 | 81 | 1010.7 |
| 20260505034503 | 74 | 163 | 8.0 | 19.0 | 0.00 | 0.00 | 0.00 | 81 | 1010.6 |
| 20260505034003 | 74 | 161 | 7.0 | 19.0 | 0.00 | 0.00 | 0.00 | 81 | 1010.6 |
| 20260505033503 | 74 | 166 | 5.0 | 14.0 | 0.00 | 0.00 | 0.00 | 81 | 1010.5 |
| 20260505033024 | 74 | 164 | 6.0 | 14.0 | 0.00 | 0.00 | 0.00 | 81 | 1010.6 |
| 20260505032503 | 74 | 160 | 7.0 | 12.0 | 0.00 | 0.00 | 0.00 | 80 | 1010.4 |
| 20260505032003 | 74 | 166 | 8.0 | 18.0 | 0.00 | 0.00 | 0.00 | 80 | 1010.4 |
| 20260505031503 | 74 | 170 | 10.0 | 18.0 | 0.00 | 0.00 | 0.00 | 80 | 1010.3 |
| 20260505031003 | 74 | 167 | 7.0 | 16.0 | 0.00 | 0.00 | 0.00 | 80 | 1010.5 |
| 20260505030503 | 75 | 161 | 8.0 | 17.0 | 0.00 | 0.00 | 0.00 | 79 | 1010.6 |
| 20260505030004 | 75 | 161 | 8.0 | 17.0 | 0.00 | 0.00 | 0.00 | 79 | 1010.6 |
| 20260505025503 | 75 | 164 | 6.0 | 16.0 | 0.00 | 0.00 | 0.00 | 79 | 1010.6 |
| 20260505025003 | 75 | 163 | 6.0 | 14.0 | 0.00 | 0.00 | 0.00 | 78 | 1010.5 |
| 20260505024524 | 75 | 164 | 6.0 | 13.0 | 0.00 | 0.00 | 0.00 | 78 | 1010.5 |
| 20260505024003 | 75 | 162 | 5.0 | 12.0 | 0.00 | 0.00 | 0.00 | 78 | 1010.6 |
| 20260505023503 | 75 | 163 | 5.0 | 12.0 | 0.00 | 0.00 | 0.00 | 78 | 1010.5 |
| 20260505023003 | 75 | 167 | 6.0 | 12.0 | 0.00 | 0.00 | 0.00 | 77 | 1010.5 |
| 20260505022503 | 76 | 170 | 5.0 | 10.0 | 0.00 | 0.00 | 0.00 | 77 | 1010.5 |
| 20260505022024 | 76 | 162 | 5.0 | 10.0 | 0.00 | 0.00 | 0.00 | 77 | 1010.5 |
| 20260505021503 | 76 | 152 | 6.0 | 12.0 | 0.00 | 0.00 | 0.00 | 76 | 1010.4 |
| 20260505021003 | 76 | 162 | 7.0 | 16.0 | 0.00 | 0.00 | 0.00 | 76 | 1010.3 |
| 20260505020503 | 76 | 163 | 6.0 | 16.0 | 0.00 | 0.00 | 0.00 | 76 | 1010.2 |
| 20260505020003 | 76 | 159 | 6.0 | 14.0 | 0.00 | 0.00 | 0.00 | 75 | 1010.3 |
| 20260505015503 | 76 | 162 | 6.0 | 14.0 | 0.00 | 0.00 | 0.00 | 75 | 1010.2 |
| 20260505015004 | 77 | 162 | 6.0 | 16.0 | 0.00 | 0.00 | 0.00 | 74 | 1010.2 |
| 20260505014525 | 77 | 164 | 6.0 | 16.0 | 0.00 | 0.00 | 0.00 | 74 | 1010.1 |
| 20260505014025 | 77 | 159 | 6.0 | 12.0 | 0.00 | 0.00 | 0.00 | 73 | 1010.3 |
| 20260505013525 | 77 | 155 | 6.0 | 12.0 | 0.00 | 0.00 | 0.00 | 72 | 1010.2 |
| 20260505013004 | 77 | 167 | 6.0 | 12.0 | 0.00 | 0.00 | 0.00 | 70 | 1010.1 |
| 20260505012504 | 78 | 170 | 6.0 | 12.0 | 0.00 | 0.00 | 0.00 | 70 | 1010.1 |
| 20260505012004 | 78 | 168 | 6.0 | 16.0 | 0.00 | 0.00 | 0.00 | 70 | 1010.0 |
| 20260505011504 | 78 | 165 | 7.0 | 16.0 | 0.00 | 0.00 | 0.00 | 69 | 1010.1 |
| 20260505011025 | 78 | 168 | 7.0 | 14.0 | 0.00 | 0.00 | 0.00 | 69 | 1010.0 |
| 20260505010504 | 78 | 168 | 7.0 | 16.0 | 0.00 | 0.00 | 0.00 | 68 | 1009.9 |
| 20260505010004 | 78 | 163 | 8.0 | 16.0 | 0.00 | 0.00 | 0.00 | 68 | 1009.9 |
| 20260505005504 | 79 | 164 | 7.0 | 16.0 | 0.00 | 0.00 | 0.00 | 67 | 1009.9 |
| 20260505005025 | 79 | 165 | 6.0 | 17.0 | 0.00 | 0.00 | 0.00 | 67 | 1010.0 |
| 20260505004504 | 79 | 172 | 8.0 | 18.0 | 0.00 | 0.00 | 0.00 | 66 | 1010.0 |
| 20260505004004 | 79 | 174 | 10.0 | 18.0 | 0.00 | 0.00 | 0.00 | 66 | 1009.9 |
| 20260505003504 | 80 | 169 | 8.0 | 17.0 | 0.00 | 0.00 | 0.00 | 65 | 1009.9 |
| 20260505003004 | 80 | 162 | 8.0 | 18.0 | 0.00 | 0.00 | 0.00 | 65 | 1009.9 |
| 20260505002504 | 80 | 168 | 10.0 | 20.0 | 0.00 | 0.00 | 0.00 | 64 | 1009.9 |
| 20260505002025 | 80 | 173 | 11.0 | 20.0 | 0.00 | 0.00 | 0.00 | 64 | 1009.9 |
| 20260505001525 | 80 | 165 | 10.0 | 19.0 | 0.00 | 0.00 | 0.00 | 63 | 1009.8 |
| 20260505001004 | 81 | 159 | 10.0 | 19.0 | 0.00 | 0.00 | 0.00 | 63 | 1009.9 |
| 20260505000504 | 81 | 164 | 10.0 | 17.0 | 0.00 | 0.00 | 0.00 | 63 | 1010.0 |
| 20260505000004 | 81 | 170 | 10.0 | 17.0 | 0.00 | 0.00 | 0.00 | 62 | 1010.0 |
| 20260504235525 | 81 | 170 | 10.0 | 18.0 | 0.00 | 0.00 | 0.00 | 62 | 1009.9 |
| 20260504235004 | 81 | 168 | 10.0 | 18.0 | 0.00 | 0.00 | 0.00 | 61 | 1010.0 |
| 20260504234504 | 81 | 169 | 10.0 | 20.0 | 0.00 | 0.00 | 0.00 | 61 | 1010.1 |
| 20260504234025 | 82 | 176 | 11.0 | 20.0 | 0.00 | 0.00 | 0.00 | 60 | 1010.2 |
| 20260504233504 | 82 | 178 | 10.0 | 20.0 | 0.00 | 0.00 | 0.00 | 60 | 1010.3 |
| 20260504233004 | 82 | 181 | 11.0 | 22.0 | 0.00 | 0.00 | 0.00 | 59 | 1010.3 |
| 20260504232504 | 82 | 180 | 12.0 | 22.0 | 0.00 | 0.00 | 0.00 | 60 | 1010.3 |
| 20260504232004 | 82 | 173 | 13.0 | 28.0 | 0.00 | 0.00 | 0.00 | 59 | 1010.3 |
| 20260504231504 | 82 | 168 | 12.0 | 28.0 | 0.00 | 0.00 | 0.00 | 59 | 1010.4 |
| 20260504231004 | 82 | 168 | 10.0 | 25.0 | 0.00 | 0.00 | 0.00 | 59 | 1010.4 |
| 20260504230503 | 82 | 169 | 11.0 | 20.0 | 0.00 | 0.00 | 0.00 | 59 | 1010.6 |
| 20260504230004 | 82 | 167 | 10.0 | 20.0 | 0.00 | 0.00 | 0.00 | 59 | 1010.7 |
| 20260504225504 | 82 | 166 | 10.0 | 19.0 | 0.00 | 0.00 | 0.00 | 58 | 1010.7 |
| 20260504225004 | 83 | 172 | 10.0 | 22.0 | 0.00 | 0.00 | 0.00 | 58 | 1010.8 |
| 20260504224504 | 83 | 173 | 11.0 | 23.0 | 0.00 | 0.00 | 0.00 | 58 | 1010.8 |
| 20260504224004 | 83 | 174 | 12.0 | 23.0 | 0.00 | 0.00 | 0.00 | 57 | 1010.8 |
| 20260504223525 | 83 | 170 | 12.0 | 23.0 | 0.00 | 0.00 | 0.00 | 58 | 1011.0 |
| 20260504223003 | 83 | 169 | 11.0 | 24.0 | 0.00 | 0.00 | 0.00 | 58 | 1010.8 |
| 20260504222504 | 83 | 166 | 11.0 | 24.0 | 0.00 | 0.00 | 0.00 | 58 | 1010.9 |
| 20260504222004 | 83 | 169 | 12.0 | 26.0 | 0.00 | 0.00 | 0.00 | 59 | 1010.9 |
| 20260504221524 | 83 | 171 | 12.0 | 26.0 | 0.00 | 0.00 | 0.00 | 59 | 1011.0 |